Weather History for Egegik, AK

Change the Weather History Date:

Wednesday, October 10, 2012

  Actual Average (PAKN) Record (PAKN)
Temperature  
Mean Temperature 45 °F 36 °F  
Max Temperature 51 °F 44 °F 57 °F (2009)
Min Temperature 39 °F 28 °F 11 °F (1980)
Degree Days  
Heating Degree Days 20 29  
Month to date heating degree days 265  
Since 1 July heating degree days 1400  
Cooling Degree Days 0    
Month to date cooling degree days  
Year to date cooling degree days  
Moisture  
Dew Point 40 °F    
Average Humidity 89    
Maximum Humidity 100    
Minimum Humidity 71    
Precipitation  
Precipitation 0.00 in 0.08 in 0.57 in (1989)
Month to date precipitation 0.82  
Year to date precipitation 15.61  
Snow  
Snow 0.00 in 0.10 in 0.60 in (1965)
Month to date snowfall 0.3  
Since 1 July snowfall 0.4  
Since 1 September snowfall 0.4  
Snow Depth -    
Sea Level Pressure  
Sea Level Pressure 29.90 in    
Wind  
Wind Speed 11 mph (NE)    
Max Wind Speed 15 mph    
Max Gust Speed 20 mph    
Visibility 9 miles    
Events      
T = Trace of Precipitation, MM = Missing Value Source: NWS Daily Summary

Daily Weather History Graph

Daily Weather History Graph

Search for Another Location

Airport:

Trip Planner

Search our weather history database for the weather conditions in past years. The results will help you decide how hot, cold, wet, or windy it might be!

Date:

Astronomy

Oct. 10, 2012 Rise Set
Actual Time 8:55 AM AKDT 7:36 PM AKDT
Civil Twilight 8:15 AM AKDT 8:15 PM AKDT
Nautical Twilight 7:30 AM AKDT 9:01 PM AKDT
Astronomical Twilight 6:43 AM AKDT 9:47 PM AKDT
Moon 2:41 AM AKDT (10/10) 5:38 PM AKDT (10/10)
Length of Visible Light 11h 59m
Length of Day
10h 40m
Waning Crescent, 26% of the Moon is Illuminated
Oct 10
Waning Crescent
Oct 15
New
Oct 21
First Quarter
Oct 29
Full
Nov 6
Last Quarter

Hourly Weather History & Observations

Time (AKDT) Temp. Windchill Dew Point Humidity Pressure Visibility Wind Dir Wind Speed Gust Speed Precip Events Conditions
12:16 AM 39.2 °F 32.0 °F 37.4 °F 93% 30.03 in 10.0 mi ENE 11.5 mph - N/A   Clear
12:36 AM 39.2 °F 32.5 °F 37.4 °F 93% 30.02 in 10.0 mi ENE 10.4 mph 16.1 mph N/A   Clear
12:56 AM 39.2 °F 32.0 °F 39.2 °F 100% 30.03 in 10.0 mi ENE 11.5 mph - N/A   Clear
1:16 AM 39.2 °F 33.6 °F 39.2 °F 100% 30.03 in 10.0 mi ENE 8.1 mph - N/A   Clear
1:36 AM 39.2 °F 33.0 °F 39.2 °F 100% 30.03 in 10.0 mi NE 9.2 mph - N/A   Clear
1:56 AM 39.2 °F 33.0 °F 37.4 °F 93% 30.02 in 10.0 mi NE 9.2 mph - N/A   Clear
2:16 AM 39.2 °F 32.0 °F 37.4 °F 93% 30.01 in 5.0 mi ENE 11.5 mph - N/A   Mostly Cloudy
2:36 AM 39.2 °F 33.0 °F 39.2 °F 100% 30.01 in 9.0 mi ENE 9.2 mph - N/A   Overcast
2:56 AM 39.2 °F 33.0 °F 39.2 °F 100% 30.01 in 10.0 mi ENE 9.2 mph - N/A   Mostly Cloudy
3:16 AM 39.2 °F 32.0 °F 39.2 °F 100% 30.00 in 2.0 mi ENE 11.5 mph - N/A   Overcast
3:36 AM 39.2 °F 33.0 °F 39.2 °F 100% 30.00 in 10.0 mi ENE 9.2 mph - N/A   Overcast
3:56 AM 39.2 °F 32.5 °F 39.2 °F 100% 30.00 in 7.0 mi NE 10.4 mph - N/A   Overcast
4:16 AM 41.0 °F 34.3 °F 39.2 °F 93% 30.00 in 10.0 mi NE 11.5 mph - N/A   Overcast
4:36 AM 41.0 °F 35.2 °F 39.2 °F 93% 30.00 in 10.0 mi NE 9.2 mph - N/A   Overcast
4:56 AM 41.0 °F 34.3 °F 39.2 °F 93% 29.99 in 2.5 mi NE 11.5 mph - N/A   Overcast
5:16 AM 41.0 °F 34.7 °F 39.2 °F 93% 29.99 in 9.0 mi NE 10.4 mph 16.1 mph N/A   Overcast
5:36 AM 41.0 °F 35.2 °F 39.2 °F 93% 29.98 in 10.0 mi NE 9.2 mph - N/A   Overcast
5:56 AM 41.0 °F 35.8 °F 39.2 °F 93% 29.98 in 10.0 mi NE 8.1 mph - N/A   Overcast
6:16 AM 41.0 °F 34.3 °F 39.2 °F 93% 29.97 in 10.0 mi NE 11.5 mph - N/A   Overcast
6:36 AM 41.0 °F 33.9 °F 39.2 °F 93% 29.97 in 4.0 mi NE 12.7 mph 17.3 mph N/A   Overcast
6:56 AM 39.2 °F 31.6 °F 39.2 °F 100% 29.95 in 4.0 mi NE 12.7 mph - N/A   Overcast
7:16 AM 39.2 °F 32.0 °F 39.2 °F 100% 29.95 in 3.0 mi NE 11.5 mph - N/A   Overcast
7:36 AM 41.0 °F 34.7 °F 39.2 °F 93% 29.95 in 10.0 mi NE 10.4 mph 18.4 mph N/A   Overcast
7:56 AM 41.0 °F 34.3 °F 39.2 °F 93% 29.94 in 7.0 mi NE 11.5 mph 17.3 mph N/A   Overcast
8:16 AM 39.2 °F 32.0 °F 39.2 °F 100% 29.95 in 10.0 mi NE 11.5 mph 16.1 mph N/A   Overcast
8:56 AM 41.0 °F 33.1 °F 39.2 °F 93% 29.94 in 10.0 mi NE 15.0 mph - N/A   Overcast
9:16 AM 41.0 °F 33.5 °F 39.2 °F 93% 29.94 in 8.0 mi NE 13.8 mph - N/A   Overcast
9:36 AM 41.0 °F 33.9 °F 39.2 °F 93% 29.93 in 10.0 mi NE 12.7 mph - N/A   Overcast
9:56 AM 41.0 °F 34.3 °F 39.2 °F 93% 29.94 in 10.0 mi NE 11.5 mph - N/A   Overcast
10:16 AM 39.2 °F 32.0 °F 39.2 °F 100% 29.94 in 10.0 mi NE 11.5 mph - N/A   Overcast
10:36 AM 39.2 °F 31.6 °F 39.2 °F 100% 29.93 in 10.0 mi NE 12.7 mph 16.1 mph N/A   Mostly Cloudy
10:56 AM 41.0 °F 33.9 °F 39.2 °F 93% 29.93 in 10.0 mi NE 12.7 mph - N/A   Overcast
11:16 AM 41.0 °F 33.9 °F 39.2 °F 93% 29.93 in 10.0 mi NE 12.7 mph - N/A   Mostly Cloudy
11:36 AM 41.0 °F 34.3 °F 39.2 °F 93% 29.93 in 10.0 mi NE 11.5 mph - N/A   Mostly Cloudy
11:56 AM 42.8 °F 36.2 °F 39.2 °F 87% 29.92 in 10.0 mi NE 12.7 mph 18.4 mph N/A   Overcast
12:16 PM 42.8 °F 36.6 °F 39.2 °F 87% 29.91 in 10.0 mi NE 11.5 mph 18.4 mph N/A   Mostly Cloudy
12:36 PM 42.8 °F 36.6 °F 39.2 °F 87% 29.91 in 10.0 mi NE 11.5 mph 18.4 mph N/A   Mostly Cloudy
1:16 PM 44.6 °F 38.8 °F 41.0 °F 87% 29.91 in 10.0 mi NE 11.5 mph 17.3 mph N/A   Clear
1:36 PM 46.4 °F 41.5 °F 42.8 °F 87% 29.91 in 10.0 mi NE 10.4 mph - N/A   Scattered Clouds
1:56 PM 44.6 °F 38.1 °F 41.0 °F 87% 29.90 in 10.0 mi NE 13.8 mph 17.3 mph N/A   Scattered Clouds
2:16 PM 46.4 °F 41.1 °F 42.8 °F 87% 29.89 in 10.0 mi NNE 11.5 mph 16.1 mph N/A   Scattered Clouds
2:36 PM 46.4 °F 40.4 °F 42.8 °F 87% 29.89 in 10.0 mi NE 13.8 mph 19.6 mph N/A   Clear
2:56 PM 48.2 °F - 42.8 °F 82% 29.88 in 10.0 mi NNE 12.7 mph 19.6 mph N/A   Clear
3:16 PM 48.2 °F - 42.8 °F 82% 29.87 in 10.0 mi NNE 15.0 mph 19.6 mph N/A   Clear
3:36 PM 50.0 °F - 44.6 °F 82% 29.86 in 10.0 mi NNE 13.8 mph 18.4 mph N/A   Clear
4:16 PM 51.8 °F - 44.6 °F 76% 29.85 in 10.0 mi NNE 10.4 mph 19.6 mph N/A   Clear
4:36 PM 50.0 °F - 42.8 °F 76% 29.85 in 10.0 mi NNE 10.4 mph 16.1 mph N/A   Clear
4:56 PM 51.8 °F - 44.6 °F 76% 29.84 in 10.0 mi NE 13.8 mph - N/A   Clear
5:16 PM 51.8 °F - 44.6 °F 76% 29.83 in 10.0 mi NE 11.5 mph - N/A   Clear
5:36 PM 51.8 °F - 42.8 °F 71% 29.82 in 10.0 mi NE 11.5 mph - N/A   Clear
5:56 PM 51.8 °F - 42.8 °F 71% 29.81 in 10.0 mi NE 13.8 mph 18.4 mph N/A   Clear
6:16 PM 50.0 °F - 42.8 °F 76% 29.81 in 10.0 mi NE 11.5 mph 17.3 mph N/A   Clear
6:36 PM 48.2 °F - 42.8 °F 82% 29.81 in 10.0 mi NE 10.4 mph - N/A   Clear
6:56 PM 48.2 °F - 42.8 °F 82% 29.80 in 10.0 mi NE 10.4 mph 16.1 mph N/A   Clear
7:16 PM 48.2 °F - 42.8 °F 82% 29.80 in 10.0 mi ENE 11.5 mph 17.3 mph N/A   Clear
7:36 PM 46.4 °F 41.1 °F 42.8 °F 87% 29.80 in 10.0 mi NE 11.5 mph - N/A   Clear
7:56 PM 46.4 °F 41.1 °F 42.8 °F 87% 29.80 in 10.0 mi NE 11.5 mph - N/A   Clear
8:16 PM 46.4 °F 42.4 °F 42.8 °F 87% 29.80 in 10.0 mi ENE 8.1 mph - N/A   Clear
8:36 PM 46.4 °F 42.4 °F 42.8 °F 87% 29.80 in 10.0 mi NE 8.1 mph - N/A   Clear
8:56 PM 46.4 °F 42.9 °F 42.8 °F 87% 29.80 in 10.0 mi ENE 6.9 mph - N/A   Clear
9:16 PM 44.6 °F 40.7 °F 41.0 °F 87% 29.80 in 10.0 mi ENE 6.9 mph - N/A   Clear
9:36 PM 44.6 °F 42.2 °F 41.0 °F 87% 29.80 in 10.0 mi NE 4.6 mph - N/A   Clear
9:56 PM 44.6 °F 40.7 °F 39.2 °F 81% 29.80 in 10.0 mi NE 6.9 mph - N/A   Clear
10:16 PM 42.8 °F 39.3 °F 39.2 °F 87% 29.80 in 10.0 mi NNE 5.8 mph - N/A   Clear
10:36 PM 42.8 °F 38.0 °F 39.2 °F 87% 29.79 in 10.0 mi NNE 8.1 mph - N/A   Clear
10:56 PM 42.8 °F 38.6 °F 39.2 °F 87% 29.79 in 10.0 mi NNE 6.9 mph - N/A   Clear
11:16 PM 42.8 °F 38.6 °F 39.2 °F 87% 29.79 in 10.0 mi NE 6.9 mph - N/A   Clear
11:36 PM 42.8 °F 39.3 °F 39.2 °F 87% 29.79 in 10.0 mi NNE 5.8 mph - N/A   Clear
11:56 PM 41.0 °F 36.4 °F 37.4 °F 87% 29.78 in 10.0 mi NNE 6.9 mph - N/A   Clear